EW4071 Weather Reports


Display with metric or nautical units.
time (UTC)temp
F
wind
direction
speed
MPH
gust
MPH
rain 1hr
in
rain 24hr
in
rain mn
in
humidity
%
barometer
mb
20260901133043 79 148 0.0 0.0 0.00 0.00 0.00 62 1013.3
20260901131542 78 137 0.0 0.0 0.00 0.00 0.00 64 1013.2
20260901130039 77 139 0.0 0.0 0.00 0.00 0.00 65 1013.2
20260901124538 76 145 0.0 0.0 0.00 0.00 0.00 65 1013.2
20260901123046 75 145 0.0 0.0 0.00 0.00 0.00 65 1012.9
20260901121541 76 145 0.0 0.0 0.00 0.00 0.00 64 1012.9
20260901120044 76 145 0.0 0.0 0.00 0.00 0.00 63 1012.7
20260901114538 75 145 0.0 0.0 0.00 0.00 0.00 64 1012.5
20260901113035 75 145 0.0 0.0 0.00 0.00 0.00 64 1012.5
20260901111530 76 145 0.0 0.0 0.00 0.00 0.00 64 1012.4
20260901110023 76 152 0.0 0.0 0.00 0.00 0.00 63 1012.4
20260901104520 77 136 0.0 4.0 0.00 0.00 0.00 62 1012.3
20260901103017 77 149 0.0 0.0 0.00 0.00 0.00 62 1012.2
20260901101515 78 131 0.0 0.0 0.00 0.00 0.00 61 1012.1
20260901100012 77 202 0.0 0.0 0.00 0.00 0.00 62 1012.0
20260901094512 77 153 0.0 0.0 0.00 0.00 0.00 61 1011.9
20260901093006 78 147 0.0 0.0 0.00 0.00 0.00 60 1011.8
20260901091506 78 156 0.0 0.0 0.00 0.00 0.00 60 1011.7
20260901090011 78 154 0.0 0.0 0.00 0.00 0.00 60 1011.6
20260901084503 78 151 0.0 0.0 0.00 0.00 0.00 60 1011.5
20260901083002 78 151 0.0 0.0 0.00 0.00 0.00 59 1011.5
20260901081559 79 142 0.0 0.0 0.00 0.00 0.00 58 1011.4
20260901080058 79 142 0.0 0.0 0.00 0.00 0.00 57 1011.3
20260901074557 79 142 0.0 0.0 0.00 0.00 0.00 56 1011.3
20260901073054 80 142 0.0 0.0 0.00 0.00 0.00 56 1011.3
20260901071554 80 142 0.0 0.0 0.00 0.00 0.00 56 1011.3
20260901070054 80 142 0.0 0.0 0.00 0.00 0.00 55 1011.4
20260901064548 81 142 0.0 0.0 0.00 0.00 0.00 54 1011.3
20260901063100 84 175 0.0 0.0 0.00 0.00 0.00 48 1011.3
20260901061557 85 234 0.0 0.0 0.00 0.00 0.00 46 1011.4
20260901060045 85 213 0.0 6.0 0.00 0.00 0.00 47 1011.4
20260901054543 83 204 0.0 0.0 0.00 0.00 0.00 50 1011.3
20260901053042 84 153 0.0 8.0 0.00 0.00 0.00 49 1011.3
20260901051541 84 164 0.0 2.0 0.00 0.00 0.00 49 1011.3
20260901050032 84 147 0.0 0.0 0.00 0.00 0.00 50 1011.2
20260901044531 84 197 0.0 2.0 0.00 0.00 0.00 49 1011.0
20260901043034 84 145 0.0 0.0 0.00 0.00 0.00 50 1011.0
20260901041530 85 153 0.0 1.0 0.00 0.00 0.00 49 1010.8
20260901040031 86 152 0.0 1.0 0.00 0.00 0.00 47 1010.8
20260901034533 86 134 0.0 1.0 0.00 0.00 0.00 47 1010.8
20260901033027 86 168 0.0 0.0 0.00 0.00 0.00 46 1010.7
20260901031526 87 157 0.0 0.0 0.00 0.00 0.00 45 1010.4
20260901030025 88 160 0.0 0.0 0.00 0.00 0.00 44 1010.2
20260901024524 88 150 0.0 8.0 0.00 0.00 0.00 43 1010.0
20260901023031 89 145 0.0 1.0 0.00 0.00 0.00 43 1009.9
20260901021524 89 155 0.0 0.0 0.00 0.00 0.00 42 1009.6
20260901020024 90 150 0.0 0.0 0.00 0.00 0.00 42 1009.3
20260901014522 90 142 0.0 0.0 0.00 0.00 0.00 41 1009.2
20260901013022 91 134 0.0 1.0 0.00 0.00 0.00 41 1009.1
20260901011521 92 148 1.0 7.0 0.00 0.00 0.00 40 1009.0
20260901010021 93 140 0.0 0.0 0.00 0.00 0.00 39 1008.8
20260901004519 94 153 0.0 8.0 0.00 0.00 0.00 38 1008.8
20260901003019 95 156 0.0 11.0 0.00 0.00 0.00 37 1008.7
20260901001518 96 150 1.0 9.0 0.00 0.00 0.00 37 1008.6
20260901000019 97 151 1.0 12.0 0.00 0.00 0.00 36 1008.6
20260831234518 97 159 8.0 14.0 0.00 0.00 0.00 35 1008.6
20260831233018 98 197 6.0 10.0 0.00 0.00 0.00 34 1008.6
20260831231516 99 135 9.0 15.0 0.00 0.00 0.00 34 1008.5
20260831230022 99 187 0.0 14.0 0.00 0.00 0.00 33 1008.5
20260831224513 100 153 10.0 16.0 0.00 0.00 0.00 32 1008.6
20260831223013 100 165 7.0 13.0 0.00 0.00 0.00 33 1008.6
20260831221514 100 157 7.0 14.0 0.00 0.00 0.00 31 1008.7
20260831220011 100 196 3.0 12.0 0.00 0.00 0.00 32 1008.8
20260831214509 100 224 7.0 14.0 0.00 0.00 0.00 32 1008.9
20260831213008 100 176 7.0 12.0 0.00 0.00 0.00 32 1008.8
20260831211507 101 163 2.0 13.0 0.00 0.00 0.00 31 1009.0
20260831210006 100 252 8.0 15.0 0.00 0.00 0.00 31 1009.1
20260831204505 100 149 7.0 14.0 0.00 0.00 0.00 31 1009.2
20260831203004 100 128 6.0 11.0 0.00 0.00 0.00 30 1009.3
20260831201506 100 154 10.0 14.0 0.00 0.00 0.00 31 1009.6
20260831200013 100 134 12.0 18.0 0.00 0.00 0.00 31 1010.0
20260831194502 100 151 10.0 13.0 0.00 0.00 0.00 31 1010.1
20260831193001 100 146 7.0 14.0 0.00 0.00 0.00 31 1010.1
20260831191601 100 128 8.0 12.0 0.00 0.00 0.00 31 1010.2
20260831190118 100 106 3.0 14.0 0.00 0.00 0.00 30 1010.4
20260831184606 100 157 6.0 18.0 0.00 0.00 0.00 33 1010.2
20260831183105 100 178 7.0 13.0 0.00 0.00 0.00 34 1010.5
20260831181602 100 216 5.0 12.0 0.00 0.00 0.00 32 1010.7
20260831180055 99 164 8.0 14.0 0.00 0.00 0.00 34 1010.9
20260831174551 98 206 8.0 14.0 0.00 0.00 0.00 36 1011.1
20260831173049 98 224 7.0 14.0 0.00 0.00 0.00 37 1011.3
20260831171548 97 187 8.0 19.0 0.00 0.00 0.00 39 1011.5
20260831170047 96 199 2.0 12.0 0.00 0.00 0.00 41 1011.5
20260831164551 95 241 7.0 14.0 0.00 0.00 0.00 41 1011.5
20260831163040 95 214 1.0 12.0 0.00 0.00 0.00 44 1011.6
20260831161539 94 212 9.0 14.0 0.00 0.00 0.00 43 1011.7
20260831160036 93 214 7.0 14.0 0.00 0.00 0.00 44 1011.7
20260831154533 92 211 7.0 12.0 0.00 0.00 0.00 45 1011.8
20260831153029 91 189 10.0 17.0 0.00 0.00 0.00 47 1011.7
20260831151524 89 195 7.0 15.0 0.00 0.00 0.00 49 1011.8
20260831150020 88 171 9.0 13.0 0.00 0.00 0.00 51 1011.8
20260831144515 86 141 1.0 10.0 0.00 0.00 0.00 54 1011.8
20260831143028 84 165 4.0 11.0 0.00 0.00 0.00 57 1012.0
20260831141535 82 146 4.0 8.0 0.00 0.00 0.00 59 1012.0
20260831140031 81 138 0.0 1.0 0.00 0.00 0.00 62 1012.3
20260831134511 79 131 0.0 7.0 0.00 0.00 0.00 63 1012.3